Regional Weather Roundup
Issued by NWS

Home | Current Version | Previous Version | Text Only | Print | Product List | Glossary On
Versions: 1 2 3 4 5 6 7 8 9 10 11 12 13 14 15 16 17 18 19 20 21 22 23 24 25 26 27 28 29 30 31 32 33 34 35 36 37 38 39 40 41 42 43 44 45 46 47 48 49 50
000
ASUS43 KMPX 261501
RWRMN
WEATHER ROUNDUP FOR MINNESOTA
NATIONAL WEATHER SERVICE TWIN CITIES/CHANHASSEN MN
1000 AM CDT MON JUN 26 2017


NOTE: "FAIR" INDICATES FEW OR NO CLOUDS BELOW 12,000 FEET WITH NO
SIGNIFICANT WEATHER AND/OR OBSTRUCTIONS TO VISIBILITY. N/A MEANS
CURRENT SKY AND/OR WEATHER CONDITIONS ARE NOT AVAILABLE.

MNZ060>063-068>070-261600-
   Twin Cities Metro

CITY           SKY/WX    TMP DP  RH WIND       PRES   REMARKS
TWIN CITIES    MOSUNNY   62  43  49 N13G20    30.19S
ST PAUL        MOSUNNY   60  46  59 N12       30.19S
CRYSTAL        SUNNY     62  42  47 N13       30.18S
BLAINE         MOSUNNY   63  46  55 N9        30.18S
LAKEVILLE      MOSUNNY   61  45  55 N8        30.19S
EDEN PRAIRIE   MOSUNNY   63  45  51 N8        30.19S
SOUTH ST PAUL  SUNNY     61  43  52 N6        30.18S
LAKE ELMO      FAIR      59  46  63 NW10      30.19S
$$
MNZ001>005-007-008-013>017-022>024-027-028-261600-
   Northwest Minnesota

CITY           SKY/WX    TMP DP  RH WIND       PRES   REMARKS
BEMIDJI        SUNNY     61  46  57 NW9       30.20S
HALLOCK        SUNNY     64  45  48 NW10      30.20S
ROSEAU         SUNNY     63  52  67 W9        30.18S
WARROAD        SUNNY     63  50  63 W14       30.17F
CROOKSTON      SUNNY     63  46  55 NW8       30.23S
FOSSTON        SUNNY     61  46  59 NW10      30.23S
DETROIT LAKES  SUNNY     59  45  58 NW10      30.25S
MOORHEAD       SUNNY     63  43  48 NW9       30.25S
PARK RAPIDS    SUNNY     62  41  46 NW13      30.21S
MAHNOMEN       FAIR      60  44  55 NW7       30.23S
$$
MNZ006-009>011-018-025>026-261600-
   North Central Minnesota

CITY           SKY/WX    TMP DP  RH WIND       PRES   REMARKS
BAUDETTE       CLOUDY    60  49  66 NW13      30.16S
FLAG ISLAND    MOSUNNY   61  45  55 NW14      30.13F
INTL FALLS     CLOUDY    61  49  64 W10       30.13S
WASKISH        PTSUNNY   61  48  63 NW8       30.18S
BIG FORK       CLOUDY    55  48  76 W3        30.16S
LONGVILLE      SUNNY     59  48  67 NW6       30.19S
GRAND RAPIDS   PTSUNNY   59  48  67 NW10      30.19S
CRANE LAKE     SUNNY     57  48  72 N3        30.13S
ORR            MOSUNNY   59  46  63 NW7       30.11F
COOK           MOSUNNY   57  48  72 W8        30.14S
WALKER         FAIR      59  44  57 NW10      30.20S
$$
MNZ012-019>021-037-261600-
   Northeast Minnesota

CITY           SKY/WX    TMP DP  RH WIND       PRES   REMARKS
DULUTH         MOSUNNY   59  46  62 NW9       30.13S
ELY            SUNNY     57  46  67 N5        30.11S
HIBBING        MOSUNNY   58  48  69 NW12      30.14S
EVELETH        MOSUNNY   58  41  53 NW7       30.14S
DULUTH HARBOR  SUNNY     59  48  67 W5        30.14S
TWO HARBORS    SUNNY     63  52  67 N7        30.10R
SILVER BAY     SUNNY     61  48  63 N7        30.09S
GRAND MARAIS     N/A     47  44  90 SW9       30.06R
G MARAIS ARPRT SUNNY     57  45  62 NW7       30.08R
$$
MNZ029>031-032-039>041-046>048-054>057-064-261600-
   West Central Minnesota

CITY           SKY/WX    TMP DP  RH WIND       PRES   REMARKS
FERGUS FALLS   SUNNY     61  45  55 N8        30.23S
WHEATON        SUNNY     61  46  59 NW6       30.27S
MORRIS         SUNNY     63  46  55 NW7       30.24S
ALEXANDRIA     SUNNY     61  44  53 N9        30.24S
ELBOW LAKE     FAIR      59  46  61 W8        30.25S
WADENA         SUNNY     59  45  58 NW10      30.22S
GLENWOOD       SUNNY     61  45  55 N9        30.23S
APPLETON       SUNNY     63  43  48 N7        30.24S
BENSON         SUNNY     63  46  55 N9        30.26R
ORTONVILLE     SUNNY     63  43  48 NW6       30.25S
MADISON        SUNNY     63  45  51 N6        30.25S
WILLMAR        FAIR      63  45  51 NW9       30.25R
$$
MNZ033>034-036-042>043-049>051-058-059-261600-
   Central Minnesota

CITY           SKY/WX    TMP DP  RH WIND       PRES   REMARKS
ST CLOUD       SUNNY     62  45  53 N12G18    30.20S
SAUK CENTRE    FAIR      60  43  54 NW12      30.22S
PAYNESVILLE    SUNNY     62  42  48 N8        30.23R
AITKIN         SUNNY     61  46  59 N8        30.16S
PINE RIVER     SUNNY     61  46  59 NW8       30.22S
BRAINERD       SUNNY     61  44  53 NW14      30.20S
STAPLES        SUNNY     61  41  48 NW10      30.21S
LONG PRAIRIE   FAIR      59  43  55 NW9       30.22S
LITTLE FALLS   SUNNY     59  41  51 N7        30.21R
LITCHFIELD     SUNNY     63  46  55 VRB9      30.22S
BUFFALO        SUNNY     61  43  51 NW9G16    30.21S
MAPLE LAKE     SUNNY     62  47  58 N9        30.22R
HUTCHINSON     SUNNY     62  45  53 NW8       30.23R
$$
MNZ037-044-045-052-053-261600-
   East Central Minnesota

CITY           SKY/WX    TMP DP  RH WIND       PRES   REMARKS
PRINCETON      SUNNY     64  46  52 NW7       30.19S
MORA           SUNNY     59  43  55 NW14G20   30.19S
CAMBRIDGE      SUNNY     63  48  59 W14       30.16S
RUSH CITY      HVY RAIN  61  48  63 NW9       30.18S
MOOSE LAKE     SUNNY     59  46  63 N6        30.14S
HINCKLEY       FAIR      61  46  59 NW9       30.16S
CLOQUET        SUNNY     59  45  58 NW10      30.14S
MCGREGOR       SUNNY     61  46  59 NW9       30.17S
$$
MNZ071>073-080-081-089-090-097-098-261600-
   Southwest Minnesota

CITY           SKY/WX    TMP DP  RH WIND       PRES   REMARKS
MONTEVIDEO     SUNNY     64  48  55 N5        30.25R
GRANITE FALLS  SUNNY     62  46  56 N8        30.26R
CANBY          SUNNY     61  45  54 CALM      30.26S
MARSHALL       SUNNY     60  46  59 NE8       30.25S
REDWOOD FALLS  SUNNY     62  42  47 N9        30.23S
OLIVIA         SUNNY     59  45  58 N8        30.23R
PIPESTONE      SUNNY     61  41  48 NE9G16    30.24S
WINDOM         SUNNY     63  43  48 N10       30.23S
WORTHINGTON    SUNNY     61  46  57 N10       30.24S
JACKSON        SUNNY     61  45  55 N9        30.23R
TRACY          SUNNY     60  48  65 N8        30.25S
SLAYTON        SUNNY     58  45  62 N10       30.25S
$$
MNZ065>067-074>077-082>085-091>093-261600-
   South Central Minnesota

CITY           SKY/WX    TMP DP  RH WIND       PRES   REMARKS
MANKATO        SUNNY     60  45  57 N13       30.21S
NEW ULM        SUNNY     61  43  51 N6        30.22S
ST JAMES       SUNNY     63  45  51 NW12      30.23S
FAIRMONT       SUNNY     62  45  53 N8        30.22S
GLENCOE        SUNNY     61  48  62 N6        30.20S
FARIBAULT      MOSUNNY   61  45  55 NW7       30.20S
OWATONNA       MOSUNNY   61  48  63 N9        30.20S
WASECA         SUNNY     59  45  58 N3        30.21S
ALBERT LEA     SUNNY     61  43  51 N8G18     30.20S
$$
MNZ078>079-086>088-094>096-261600-
   Southeast Minnesota

CITY           SKY/WX    TMP DP  RH WIND       PRES   REMARKS
ROCHESTER      PTSUNNY   59  45  59 MISG      30.19R
RED WING       SUNNY     63  43  48 NW8       30.17S
STANTON        MOSUNNY   60  45  57 N12       30.18S
DODGE CENTER   MOSUNNY   59  45  58 N10       30.19R
WINONA         SUNNY     59  45  58 NW9       30.17S
AUSTIN         SUNNY     61  45  55 NW14G20   30.19R
PRESTON        PTSUNNY   57  45  62 NW10      30.18S
$$
ABBREVIATIONS USED IN REMARKS
   TC - TEMPERATURES IN CELSIUS
  WCI - WIND CHILL INDEX
   HX - HEAT INDEX
  VSB - VISIBILITY
$$




USA.gov is the U.S. government's official web portal to all federal, state and local government web resources and services.